Wind_Speed
40 40 39 38 37 36 35 34 33 32 31 30 29 28 27 26 26 25 25 24 23 22 21 20 20 19 17 16 15 15 14 13 13 12 10 10 11 12 12 12 11 12
41 41 40 39 39 38 36 35 34 33 32 30 29 29 28 27 27 27 26 25 24 22 21 21 20 19 19 18 16 16 16 15 15 14 11 11 12 13 13 13 13 14
42 42 41 41 40 38 37 36 35 34 32 31 30 30 29 28 28 28 27 27 25 24 23 22 21 20 20 19 18 18 17 17 16 15 12 11 12 13 14 14 14 14
43 42 41 40 39 38 37 36 35 34 33 32 32 31 30 30 29 29 28 28 27 26 25 23 22 22 21 20 20 20 19 19 18 16 14 13 13 13 15 15 15 15
44 43 42 40 39 38 37 36 35 34 32 31 31 31 32 32 31 30 30 29 29 29 28 26 24 23 23 22 22 22 21 19 17 17 16 14 13 14 15 17 17 17
46 44 43 42 41 40 39 38 36 35 33 31 30 31 32 32 32 32 31 31 30 30 30 29 27 25 24 24 23 23 23 19 16 18 17 15 14 14 16 19 19 19
47 45 44 43 42 41 41 40 38 37 35 33 32 31 31 32 33 33 32 32 31 30 30 30 28 27 26 25 25 24 24 22 18 18 18 16 14 14 16 20 21 21
47 46 44 43 43 43 42 41 40 39 37 36 35 33 32 32 32 33 33 33 32 32 31 31 29 28 27 27 27 25 25 25 22 20 20 18 15 15 17 20 22 22
48 47 46 45 44 44 43 42 41 40 39 38 37 35 34 33 33 32 33 33 34 33 32 32 31 29 28 28 28 26 26 26 25 24 23 21 19 19 20 21 22 23
49 48 47 46 46 45 44 43 42 41 40 39 38 37 37 36 34 33 33 34 34 34 34 34 33 31 30 30 30 29 27 27 27 26 25 23 22 23 23 23 22 22
48 48 48 48 47 46 45 44 43 42 42 40 39 39 39 39 36 35 35 35 35 35 35 35 35 34 32 32 31 30 29 29 29 28 27 25 24 25 25 24 23 23
48 48 48 47 47 47 46 45 44 44 43 42 40 39 39 40 39 38 38 37 36 36 36 36 36 36 35 34 33 32 31 31 31 30 29 27 26 27 27 26 25 24
47 46 45 45 45 45 45 45 44 44 44 43 41 40 39 40 40 40 39 38 38 37 36 36 36 36 36 36 35 34 34 33 33 32 30 29 29 29 29 29 27 26
47 45 44 44 43 43 43 43 43 43 43 43 42 40 40 40 40 41 40 39 38 38 37 37 37 37 37 38 37 37 36 36 35 35 33 31 31 31 31 31 30 28
48 47 45 44 45 44 43 43 43 43 42 43 43 42 41 41 41 41 41 41 39 39 38 38 38 39 39 39 39 39 39 38 37 37 36 34 33 33 33 33 33 31
49 47 46 46 47 46 45 44 43 44 44 44 44 43 42 42 42 42 43 42 42 41 40 40 40 40 40 40 40 40 40 40 39 39 38 37 36 35 35 35 35 34
48 47 47 48 48 47 47 46 45 45 45 46 46 45 44 43 43 43 43 44 44 43 42 42 42 42 41 40 40 40 39 40 41 41 40 39 38 37 37 37 37 36
47 47 48 48 48 48 48 47 46 46 47 47 47 46 45 44 44 43 43 44 44 45 44 43 43 43 42 41 41 40 40 39 40 42 42 41 40 39 38 38 39 38
46 46 47 47 48 48 48 47 47 47 48 48 47 46 45 45 44 44 43 43 44 45 45 44 44 44 43 42 42 41 40 39 39 41 43 42 42 41 40 40 41 41
46 46 47 47 47 48 48 47 47 47 47 47 47 47 46 46 46 45 44 44 44 45 46 45 45 45 44 43 43 42 41 39 39 41 42 43 43 43 42 42 43 43
45 46 47 47 48 48 47 46 46 46 46 47 47 47 47 47 46 45 45 45 45 46 46 46 46 46 46 45 43 43 42 40 39 40 42 43 43 44 43 42 43 44
44 45 47 47 47 47 47 46 46 46 46 46 47 47 47 47 46 46 46 46 46 46 46 46 46 46 47 47 45 44 42 41 41 41 41 42 43 44 44 42 40 41
43 44 45 45 46 46 46 45 45 45 45 46 46 46 47 47 47 46 46 46 46 46 46 47 46 44 46 48 47 45 44 43 43 42 43 42 42 42 44 44 43 42
42 42 42 43 44 45 44 43 43 44 44 45 45 45 46 46 46 46 46 46 46 46 45 46 46 43 44 47 48 47 46 45 44 44 44 43 42 42 42 42 43 43
39 39 39 41 42 42 42 42 43 43 44 44 44 44 45 45 44 44 45 45 46 45 45 45 45 41 39 42 46 47 46 46 45 45 46 46 44 41 36 34 34 36
36 36 37 37 38 39 40 41 42 43 43 43 43 43 43 42 42 42 42 43 44 43 42 43 45 43 39 39 43 46 45 44 44 46 47 46 42 35 30 30 30 32
Wind_Direction
227 228 229 231 232 233 234 235 236 237 238 238 238 238 238 239 239 240 242 244 245 245 245 245 247 251 250 242 236 236 235 232 238 240 227 222 232 236 236 233 228 227
227 228 230 231 232 233 234 235 236 237 238 239 239 240 240 240 240 240 241 244 245 245 244 245 247 250 252 249 241 237 238 236 236 238 231 223 229 235 236 235 232 234
228 228 229 230 231 232 233 235 236 236 238 239 239 240 240 241 241 240 240 241 243 244 243 243 245 248 251 252 249 241 237 239 239 237 230 224 227 233 236 234 231 235
227 227 228 229 231 232 233 235 236 236 236 237 238 238 238 240 240 240 239 239 240 242 243 242 243 247 249 251 252 248 240 238 240 237 230 226 226 228 233 233 229 232
226 226 228 229 230 232 233 233 233 234 235 235 236 237 237 237 238 239 239 238 238 240 242 243 242 244 248 249 250 251 246 239 236 235 231 227 226 226 231 234 231 231
226 226 227 229 230 232 233 232 232 233 234 234 235 236 236 236 236 237 238 238 237 238 240 242 241 242 245 247 248 249 248 242 234 236 234 224 222 223 229 236 235 233
226 226 227 228 230 232 233 233 233 233 234 235 235 235 235 235 235 235 236 237 237 237 239 240 240 239 241 244 245 246 248 245 236 236 236 227 221 220 225 234 236 235
227 227 227 228 230 232 234 234 235 235 234 235 236 236 235 235 235 234 235 236 237 237 238 239 238 237 238 241 244 243 245 247 241 237 237 231 222 221 225 232 237 237
228 227 227 228 229 232 233 234 235 235 235 235 236 237 237 237 235 235 235 235 236 237 237 238 238 237 236 238 241 242 242 245 245 243 243 237 230 230 233 235 237 238
229 229 229 229 229 231 232 234 236 237 237 237 236 237 238 239 236 236 237 236 235 236 237 238 238 237 237 237 239 241 242 244 246 246 247 244 239 239 240 240 240 239
230 230 230 230 230 230 231 233 235 237 239 238 237 236 238 239 238 236 237 237 236 236 236 237 238 238 238 237 239 240 241 242 244 245 246 245 242 240 241 241 240 240
230 230 230 230 230 230 231 232 234 236 238 239 238 236 237 239 239 237 237 237 237 238 237 237 239 240 239 238 238 240 241 242 243 244 244 243 242 240 240 240 239 239
231 231 230 230 230 230 230 231 232 234 236 238 237 236 236 237 238 239 238 237 238 239 239 239 239 241 241 239 238 239 240 241 242 243 244 243 242 241 241 241 239 238
233 232 232 232 231 231 230 230 231 232 234 236 237 236 236 236 238 239 240 239 239 239 240 240 240 241 242 241 240 239 239 240 241 243 243 243 242 242 242 243 242 239
234 233 233 233 234 233 232 231 232 233 234 236 237 237 237 238 238 240 241 242 241 240 240 240 241 242 242 241 241 239 239 240 241 242 243 243 243 243 243 244 244 242
235 235 234 234 234 235 235 234 233 234 235 237 238 238 239 239 240 241 242 243 243 242 241 240 241 242 242 242 242 241 241 240 241 242 243 243 244 244 244 245 246 244
235 236 236 236 236 236 236 236 236 236 237 238 239 240 240 241 242 242 243 244 245 244 243 242 241 242 243 243 243 243 243 242 242 243 243 244 244 244 245 246 247 246
234 236 236 237 237 238 238 238 238 239 240 240 241 242 243 243 244 244 244 245 246 246 246 244 243 242 243 244 244 244 244 244 245 245 244 244 245 245 245 246 247 247
235 235 237 238 238 239 239 239 240 241 241 242 243 244 244 245 245 246 246 245 246 247 247 247 246 245 243 244 244 244 244 244 245 246 246 244 244 245 245 246 247 246
236 236 237 238 239 239 240 241 242 242 243 244 244 245 246 246 246 246 246 246 246 247 247 247 248 247 245 244 244 245 244 244 244 246 247 246 245 245 245 245 247 247
237 237 237 238 238 239 240 242 243 244 244 244 244 245 247 248 248 247 248 247 247 247 248 248 249 249 248 246 245 245 245 245 245 246 247 247 246 246 245 244 245 246
238 238 238 238 238 239 241 243 244 245 246 245 245 245 247 249 250 250 249 249 249 249 249 249 249 249 248 247 246 246 246 246 246 246 246 247 246 246 245 244 243 244
237 238 238 239 239 241 242 243 245 246 247 247 247 246 246 249 251 251 252 252 252 251 251 251 249 248 248 248 247 247 246 245 245 244 244 244 244 244 244 244 243 242
236 238 239 240 241 242 244 245 247 248 248 249 249 248 248 249 250 251 253 255 255 254 254 252 250 249 250 248 247 247 247 246 245 244 243 242 242 241 240 241 243 242
237 239 240 241 243 244 246 247 248 249 249 250 251 251 251 250 249 250 252 255 257 258 257 254 252 250 250 249 249 249 248 247 246 245 244 242 241 239 237 236 238 240
239 240 241 242 244 246 247 248 249 250 251 251 253 253 251 250 249 249 250 253 256 257 256 256 255 252 248 247 250 251 250 249 247 245 244 242 239 236 233 234 234 236
Height
1532 1534 1536 1538 1540 1542 1544 1545 1547 1548 1550 1552 1554 1556 1557 1559 1560 1561 1562 1563 1565 1566 1568 1569 1570 1571 1572 1573 1574 1575 1576 1577 1577 1577 1577 1577 1578 1579 1580 1580 1581 1582
1528 1531 1533 1535 1536 1538 1540 1542 1544 1545 1547 1549 1551 1553 1554 1556 1557 1559 1560 1561 1562 1564 1565 1566 1567 1568 1569 1571 1572 1573 1574 1575 1575 1575 1575 1576 1576 1577 1578 1579 1579 1580
1524 1527 1529 1531 1533 1535 1537 1539 1541 1542 1544 1546 1548 1550 1551 1553 1554 1556 1558 1559 1560 1561 1562 1564 1565 1566 1567 1568 1569 1571 1572 1572 1573 1573 1574 1574 1575 1575 1576 1577 1577 1578
1520 1523 1525 1527 1529 1532 1534 1536 1537 1539 1541 1543 1544 1546 1548 1549 1551 1552 1554 1556 1557 1558 1559 1561 1562 1563 1564 1565 1567 1568 1569 1570 1571 1571 1572 1572 1573 1573 1574 1575 1575 1576
1516 1518 1521 1524 1526 1529 1531 1532 1534 1535 1537 1539 1541 1543 1544 1546 1547 1549 1551 1552 1554 1555 1556 1558 1559 1560 1561 1563 1564 1565 1566 1567 1568 1568 1569 1570 1571 1571 1572 1572 1573 1573
1512 1514 1517 1520 1522 1525 1527 1528 1530 1532 1534 1536 1537 1539 1540 1542 1544 1545 1547 1549 1550 1552 1553 1554 1556 1557 1559 1559 1561 1562 1563 1564 1565 1565 1566 1568 1569 1569 1570 1570 1570 1570
1507 1510 1513 1516 1518 1521 1522 1524 1527 1528 1530 1532 1534 1535 1537 1538 1540 1542 1544 1545 1547 1549 1550 1551 1553 1554 1556 1556 1558 1559 1560 1561 1562 1562 1563 1565 1566 1567 1567 1567 1567 1567
1502 1505 1509 1511 1514 1516 1518 1520 1523 1525 1527 1529 1530 1532 1533 1535 1536 1538 1540 1542 1543 1545 1546 1548 1549 1551 1553 1553 1554 1556 1557 1558 1559 1560 1561 1562 1563 1564 1564 1564 1564 1565
1498 1501 1504 1507 1509 1512 1514 1516 1518 1521 1523 1525 1527 1528 1530 1531 1533 1535 1536 1538 1540 1541 1543 1544 1546 1547 1549 1550 1551 1553 1554 1555 1556 1556 1558 1559 1560 1560 1560 1561 1562 1562
1493 1496 1499 1502 1505 1507 1509 1512 1515 1517 1519 1520 1523 1525 1526 1527 1529 1531 1533 1534 1536 1537 1539 1541 1542 1544 1546 1547 1548 1550 1551 1552 1553 1553 1555 1556 1557 1557 1557 1558 1559 1560
1488 1491 1494 1497 1500 1502 1505 1508 1511 1513 1514 1516 1518 1520 1522 1523 1525 1527 1528 1530 1531 1533 1535 1537 1538 1540 1542 1543 1545 1546 1548 1549 1549 1550 1551 1553 1554 1554 1554 1555 1556 1557
1482 1486 1489 1492 1495 1498 1501 1504 1506 1508 1510 1511 1513 1516 1518 1519 1521 1522 1524 1525 1527 1529 1531 1533 1535 1536 1538 1540 1541 1543 1544 1545 1546 1547 1548 1549 1550 1550 1551 1551 1553 1553
1477 1480 1484 1487 1490 1492 1496 1499 1501 1503 1505 1507 1509 1511 1513 1515 1516 1518 1519 1521 1524 1525 1527 1530 1531 1532 1534 1536 1537 1539 1540 1541 1542 1543 1545 1546 1546 1547 1547 1548 1549 1550
1472 1476 1479 1482 1485 1488 1491 1494 1496 1498 1500 1502 1504 1506 1508 1510 1512 1513 1515 1517 1519 1521 1523 1525 1527 1528 1529 1531 1533 1534 1536 1537 1538 1539 1541 1542 1543 1543 1544 1544 1545 1546
1467 1471 1474 1477 1480 1483 1485 1488 1491 1493 1496 1498 1499 1501 1504 1506 1508 1510 1511 1513 1515 1517 1519 1521 1522 1523 1524 1526 1528 1530 1531 1533 1534 1535 1536 1538 1539 1540 1540 1540 1541 1542
1462 1466 1469 1472 1475 1477 1480 1483 1486 1488 1491 1493 1494 1497 1499 1501 1503 1505 1507 1508 1510 1512 1514 1515 1516 1517 1519 1521 1523 1525 1527 1529 1530 1531 1532 1533 1534 1535 1536 1536 1536 1538
1457 1461 1464 1466 1469 1472 1475 1478 1481 1483 1485 1487 1489 1492 1494 1496 1498 1500 1502 1503 1505 1506 1508 1510 1511 1512 1514 1516 1518 1520 1522 1524 1525 1526 1527 1528 1529 1530 1531 1532 1532 1533
1453 1456 1459 1461 1464 1467 1470 1473 1476 1478 1480 1482 1484 1487 1489 1491 1493 1495 1497 1499 1500 1501 1502 1504 1505 1507 1509 1511 1513 1515 1518 1519 1520 1521 1522 1524 1524 1525 1526 1527 1527 1528
1450 1452 1454 1457 1459 1462 1465 1468 1471 1473 1475 1477 1480 1482 1484 1486 1488 1489 1491 1493 1494 1495 1497 1498 1500 1502 1504 1506 1508 1510 1513 1515 1516 1516 1517 1518 1519 1520 1521 1522 1522 1523
1447 1448 1450 1452 1455 1458 1461 1464 1466 1468 1470 1473 1475 1477 1479 1480 1482 1484 1486 1487 1488 1490 1491 1493 1494 1496 1498 1500 1503 1505 1507 1510 1511 1511 1512 1513 1514 1515 1516 1517 1517 1517
1443 1445 1447 1449 1452 1455 1457 1460 1462 1464 1466 1469 1471 1472 1474 1475 1477 1479 1480 1481 1483 1485 1486 1487 1489 1490 1492 1494 1497 1499 1502 1505 1506 1507 1507 1507 1508 1509 1510 1511 1511 1512
1437 1440 1443 1446 1449 1452 1454 1456 1458 1459 1462 1464 1466 1468 1470 1471 1472 1473 1475 1477 1478 1480 1481 1482 1484 1485 1486 1488 1491 1494 1497 1499 1500 1501 1502 1502 1503 1504 1505 1506 1506 1506
1433 1437 1440 1443 1446 1448 1449 1452 1453 1455 1458 1460 1462 1464 1465 1466 1467 1469 1470 1472 1473 1475 1476 1477 1478 1480 1481 1482 1485 1488 1490 1492 1493 1495 1496 1496 1497 1497 1498 1499 1499 1500
1431 1434 1437 1440 1442 1443 1445 1447 1449 1452 1453 1455 1457 1459 1461 1463 1464 1465 1466 1467 1468 1470 1471 1472 1474 1475 1475 1476 1479 1481 1483 1485 1487 1488 1489 1489 1490 1491 1492 1492 1493 1494
1428 1431 1433 1436 1437 1440 1442 1444 1447 1449 1451 1452 1454 1456 1458 1460 1461 1462 1462 1463 1464 1465 1466 1468 1469 1470 1471 1471 1472 1475 1477 1479 1481 1482 1482 1483 1483 1484 1486 1486 1488 1489
1425 1427 1430 1432 1434 1436 1439 1442 1444 1446 1448 1450 1451 1453 1455 1456 1457 1458 1459 1459 1460 1461 1462 1463 1464 1465 1466 1466 1466 1468 1470 1473 1474 1475 1475 1477 1479 1480 1481 1481 1482 1484